FW6512 Weather Reports


time (UTC)temp
C
wind
direction
speed
KPH
gust
KPH
rain 1hr
cm
rain 24hr
cm
rain mn
cm
humidity
%
barometer
mb
20260503211126 25 174 1.6 11.3 0.00 0.00 0.00 44 1009.9
20260503210621 24 221 0.0 16.1 0.00 0.00 0.00 46 1009.5
20260503210114 24 335 8.0 16.1 0.00 0.00 0.00 46 1009.9
20260503205606 23 18 4.8 12.9 0.00 0.00 0.00 47 1009.9
20260503205322 23 298 4.8 12.9 0.00 0.00 0.00 48 1009.5
20260503204554 25 301 4.8 9.7 0.00 0.00 0.00 47 1009.9
20260503204047 25 247 1.6 9.7 0.00 0.00 0.00 46 1010.2
20260503203540 24 243 4.8 11.3 0.00 0.00 0.00 48 1009.9
20260503203034 23 8 6.4 11.3 0.00 0.00 0.00 49 1009.9
20260503202527 24 333 3.2 9.7 0.00 0.00 0.00 48 1010.2
20260503202020 24 236 3.2 9.7 0.00 0.00 0.00 49 1010.2
20260503201513 24 292 6.4 9.7 0.00 0.00 0.00 48 1010.2
20260503201007 23 90 3.2 9.7 0.00 0.00 0.00 48 1010.5
20260503200500 23 216 1.6 11.3 0.00 0.00 0.00 49 1010.2
20260503200220 23 165 3.2 11.3 0.00 0.00 0.00 51 1010.5
20260503195447 23 287 6.4 11.3 0.00 0.00 0.00 49 1010.5
20260503194939 23 252 1.6 11.3 0.00 0.00 0.00 50 1010.5
20260503194433 22 255 1.6 11.3 0.00 0.00 0.00 52 1010.5
20260503193926 23 212 1.6 16.1 0.00 0.00 0.00 50 1010.5
20260503193419 22 325 1.6 16.1 0.00 0.00 0.00 52 1010.9
20260503192914 22 246 3.2 14.5 0.00 0.00 0.00 54 1010.9
20260503192406 22 237 3.2 12.9 0.00 0.00 0.00 53 1010.9
20260503192120 23 230 0.0 14.5 0.00 0.00 0.00 53 1010.9
20260503191353 22 239 1.6 14.5 0.00 0.00 0.00 54 1010.5
20260503190847 22 241 1.6 11.3 0.00 0.00 0.00 53 1010.9
20260503185833 22 320 9.7 14.5 0.00 0.00 0.00 54 1010.9
20260503185327 22 352 8.0 14.5 0.00 0.00 0.00 53 1010.9
20260503184820 22 324 8.0 11.3 0.00 0.00 0.00 54 1010.9
20260503184312 22 312 1.6 11.3 0.00 0.00 0.00 54 1011.2
20260503183806 22 254 1.6 12.9 0.00 0.00 0.00 54 1011.2
20260503183300 22 317 4.8 12.9 0.00 0.00 0.00 52 1011.2
20260503182753 22 331 6.4 11.3 0.00 0.00 0.00 53 1011.2
20260503182246 23 356 3.2 9.7 0.00 0.00 0.00 52 1011.2
20260503181740 23 248 1.6 9.7 0.00 0.00 0.00 53 1011.6
20260503181233 23 48 3.2 6.4 0.00 0.00 0.00 53 1011.6
20260503180727 23 226 1.6 4.8 0.00 0.00 0.00 53 1011.6
20260503180220 22 201 1.6 4.8 0.00 0.00 0.00 54 1011.2
20260503175713 22 207 1.6 11.3 0.00 0.00 0.00 56 1011.2
20260503175206 22 170 1.6 11.3 0.00 0.00 0.00 55 1011.6
20260503175146 23 276 0.0 4.8 0.00 0.00 0.00 54 1011.6
20260503174413 22 22 3.2 4.8 0.00 0.00 0.00 56 1011.9
20260503173907 22 215 3.2 4.8 0.00 0.00 0.00 55 1011.6
20260503173139 22 292 3.2 6.4 0.00 0.00 0.00 56 1011.6
20260503172633 21 309 4.8 9.7 0.00 0.00 0.00 58 1011.6
20260503172125 21 262 3.2 9.7 0.00 0.00 0.00 58 1011.6
20260503171620 21 131 1.6 6.4 0.00 0.00 0.00 58 1011.6
20260503171337 21 220 0.0 6.4 0.00 0.00 0.00 59 1011.6
20260503170605 21 305 1.6 4.8 0.00 0.00 0.00 59 1011.6
20260503150831 18 190 0.0 0.0 0.00 0.00 0.00 74 1012.2
20260503150324 17 187 0.0 0.0 0.00 0.00 0.00 75 1011.9
20260503140205 12 181 0.0 0.0 0.00 0.00 0.00 93 1011.9
20260503131058 11 191 0.0 0.0 0.00 0.00 0.00 95 1011.9
20260503130551 11 195 0.0 1.6 0.00 0.00 0.00 95 1011.6
20260503130315 11 182 0.0 1.6 0.00 0.00 0.00 95 1011.6
20260503110818 13 181 0.0 1.6 0.00 0.00 0.00 90 1011.9
20260503110311 13 181 0.0 1.6 0.00 0.00 0.00 90 1011.9
20260503100152 12 202 0.0 1.6 0.00 0.05 0.00 86 1012.2
20260503081431 15 178 0.0 4.8 0.00 0.05 0.00 71 1012.6
20260503081146 15 190 0.0 4.8 0.00 0.05 0.00 71 1012.2
20260503080417 15 186 0.0 3.2 0.00 0.05 0.00 71 1012.2
20260503080136 15 161 0.0 3.2 0.00 0.05 0.00 71 1012.2
20260503072831 16 161 1.6 3.2 0.00 0.05 0.00 67 1012.2
20260503072324 16 122 0.0 1.6 0.00 0.05 0.00 65 1012.2
20260503071817 16 197 0.0 1.6 0.00 0.05 0.00 64 1012.2
20260503071533 17 188 0.0 1.6 0.00 0.05 0.00 62 1012.2
20260503070804 17 190 0.0 1.6 0.00 0.05 0.00 61 1012.2
20260503070516 17 218 0.0 1.6 0.00 0.05 0.00 59 1012.2
20260503060137 20 251 3.2 14.5 0.00 0.05 0.05 48 1011.9
20260503055123 20 345 11.3 14.5 0.00 0.05 0.05 48 1011.9
20260503054617 20 11 4.8 17.7 0.00 0.05 0.05 47 1011.9
20260503054332 20 323 6.4 17.7 0.00 0.05 0.05 47 1011.9
20260503053604 20 334 8.0 16.1 0.00 0.05 0.05 48 1011.6
20260503053057 20 299 8.0 16.1 0.00 0.05 0.05 48 1011.9
20260503052809 20 23 6.4 12.9 0.00 0.05 0.05 48 1011.9
20260503052043 20 338 6.4 17.7 0.00 0.05 0.05 49 1012.2
20260503051536 20 18 9.7 17.7 0.00 0.05 0.05 48 1011.9
20260503051445 20 311 3.2 9.7 0.00 0.05 0.05 50 1011.9
20260503051105 20 10 3.2 12.9 0.00 0.05 0.05 50 1011.9
20260503050017 20 348 1.6 9.7 0.00 0.05 0.05 52 1011.9
20260503045510 20 4 3.2 9.7 0.00 0.05 0.05 52 1011.9
20260503045313 20 3 1.6 9.7 0.00 0.05 0.05 52 1011.9
20260503045200 20 163 1.6 9.7 0.00 0.05 0.05 53 1011.9
20260503043950 20 94 3.2 9.7 0.00 0.05 0.05 53 1011.6
20260503043443 19 26 0.0 6.4 0.00 0.05 0.05 56 1011.6
20260503042937 19 47 4.8 11.3 0.00 0.05 0.05 56 1011.6
20260503042652 19 346 6.4 11.3 0.00 0.05 0.05 57 1011.6
20260503042151 18 161 0.0 3.2 0.00 0.05 0.05 61 1011.6
20260503041417 18 213 1.6 3.2 0.00 0.05 0.05 63 1011.6
20260503040910 17 214 0.0 0.0 0.00 0.05 0.05 66 1011.6
20260503040404 17 199 0.0 0.0 0.00 0.05 0.05 65 1011.2
20260503035857 17 202 0.0 1.6 0.00 0.05 0.05 65 1011.2
20260503035548 17 200 0.0 1.6 0.00 0.05 0.05 64 1011.2
20260503035432 17 201 0.0 1.6 0.00 0.05 0.05 64 1011.2
20260503034336 17 199 0.0 1.6 0.00 0.05 0.05 64 1010.9
20260503034054 17 204 0.0 0.0 0.00 0.05 0.05 65 1010.9
20260503033541 18 217 0.0 0.0 0.00 0.05 0.05 64 1011.2
20260503032816 18 198 0.0 3.2 0.00 0.05 0.05 63 1010.9
20260503032310 18 198 0.0 3.2 0.00 0.05 0.05 61 1010.5
20260503031803 18 196 0.0 3.2 0.00 0.05 0.05 61 1010.9
20260503031257 18 263 1.6 3.2 0.00 0.05 0.05 60 1010.5
20260503030749 19 198 0.0 4.8 0.00 0.05 0.05 60 1010.5
20260503030511 19 218 0.0 4.8 0.00 0.05 0.05 59 1010.5
20260503025736 19 203 1.6 4.8 0.00 0.05 0.05 59 1010.5
20260503025229 19 199 0.0 4.8 0.00 0.05 0.05 58 1010.5
20260503024722 20 249 3.2 4.8 0.00 0.05 0.05 57 1010.5
20260503024216 20 292 1.6 6.4 0.00 0.05 0.05 57 1010.5
20260503023709 20 328 4.8 6.4 0.00 0.05 0.05 56 1010.5
20260503023202 20 202 1.6 6.4 0.00 0.05 0.05 56 1010.5
20260503022655 20 203 0.0 6.4 0.00 0.05 0.05 56 1010.5
20260503022410 21 192 0.0 9.7 0.00 0.05 0.05 55 1010.5
20260503021642 21 272 1.6 12.9 0.00 0.05 0.05 55 1010.5
20260503021135 21 4 4.8 12.9 0.00 0.05 0.05 54 1010.5
20260503020628 21 12 6.4 12.9 0.00 0.05 0.05 54 1010.5
20260503020121 21 253 3.2 14.5 0.00 0.05 0.05 54 1010.5
20260503015615 21 358 4.8 14.5 0.00 0.05 0.05 53 1010.2
20260503015109 21 320 4.8 9.7 0.00 0.05 0.05 53 1010.5
20260503014602 21 165 1.6 11.3 0.00 0.05 0.05 53 1010.5
20260503014551 21 309 6.4 11.3 0.00 0.05 0.05 52 1010.5
20260503013549 22 31 8.0 9.7 0.00 0.05 0.05 52 1010.5
20260503013042 22 247 6.4 9.7 0.00 0.05 0.05 52 1010.5
20260503012535 22 299 3.2 11.3 0.00 0.05 0.05 52 1010.5
20260503012028 22 261 4.8 11.3 0.00 0.05 0.05 51 1010.5
20260503011522 22 319 6.4 11.3 0.00 0.05 0.05 51 1010.5
20260503011015 22 226 1.6 12.9 0.00 0.05 0.05 51 1010.5
20260503010508 22 321 6.4 12.9 0.00 0.05 0.05 50 1010.5
20260503010002 22 357 8.0 12.9 0.00 0.05 0.05 50 1010.5
20260503005718 22 307 4.8 11.3 0.00 0.05 0.05 50 1010.9
20260503005207 22 338 3.2 12.9 0.00 0.05 0.05 49 1010.9
20260503004703 22 20 6.4 12.9 0.00 0.05 0.05 50 1010.5
20260503003935 22 246 4.8 11.3 0.00 0.05 0.05 51 1011.2
20260503003428 22 281 4.8 14.5 0.00 0.05 0.05 50 1010.9
20260503002922 22 291 6.4 14.5 0.00 0.05 0.05 51 1010.9
20260503002415 23 284 3.2 9.7 0.00 0.05 0.05 49 1010.9
20260503001908 22 214 3.2 12.9 0.00 0.05 0.05 50 1010.9
20260503001401 22 249 1.6 12.9 0.00 0.05 0.05 50 1010.9
20260503000854 22 324 4.8 9.7 0.00 0.05 0.05 50 1010.9
20260503000348 22 103 3.2 12.9 0.00 0.05 0.05 49 1010.9
20260502235841 22 208 1.6 12.9 0.00 0.05 0.05 49 1010.9
20260502235554 22 236 4.8 17.7 0.00 0.05 0.05 50 1010.9
20260502235316 22 271 12.9 17.7 0.00 0.05 0.05 49 1010.9
20260502234321 22 6 9.7 22.5 0.00 0.05 0.05 49 1011.2
20260502233814 22 307 9.7 22.5 0.00 0.05 0.05 49 1011.2
20260502233532 22 228 3.2 20.9 0.00 0.05 0.05 48 1011.6
20260502233022 22 116 6.4 20.9 0.00 0.05 0.05 48 1011.2
20260502232254 22 294 3.2 22.5 0.00 0.05 0.05 50 1011.2
20260502231748 22 346 4.8 22.5 0.00 0.05 0.05 50 1011.6
20260502231241 22 256 9.7 14.5 0.00 0.05 0.05 49 1011.6
20260502230734 22 269 3.2 9.7 0.00 0.05 0.05 50 1011.6
20260502230228 22 234 4.8 14.5 0.00 0.05 0.05 51 1011.6
20260502225721 22 346 8.0 14.5 0.00 0.05 0.05 53 1011.6
20260502225215 22 275 3.2 17.7 0.00 0.05 0.05 53 1011.9
20260502224935 21 353 8.0 17.7 0.00 0.05 0.05 54 1011.9
20260502224201 21 336 4.8 16.1 0.00 0.05 0.05 56 1012.2
20260502223654 21 330 6.4 16.1 0.00 0.05 0.05 56 1011.9
20260502223147 21 265 4.8 12.9 0.00 0.05 0.05 55 1012.2
20260502222641 22 295 3.2 22.5 0.00 0.05 0.05 55 1012.2
20260502222134 21 222 3.2 22.5 0.00 0.05 0.05 59 1012.2
20260502221627 21 324 6.4 17.7 0.00 0.05 0.05 59 1012.2
20260502221121 21 165 1.6 17.7 0.00 0.05 0.05 60 1012.6
20260502220614 20 225 1.6 14.5 0.00 0.05 0.05 61 1012.2
20260502220108 21 332 9.7 14.5 0.00 0.05 0.05 59 1012.6
20260502215601 22 359 4.8 12.9 0.00 0.05 0.05 57 1012.6
20260502215314 21 327 8.0 12.9 0.00 0.05 0.05 56 1012.6
20260502214547 21 217 1.6 9.7 0.00 0.05 0.05 56 1012.6
20260502214041 21 23 8.0 9.7 0.00 0.05 0.05 59 1012.2
20260502214024 21 303 4.8 14.5 0.00 0.05 0.05 58 1012.6
20260502213028 21 204 1.6 14.5 0.00 0.05 0.05 61 1012.6
20260502212520 21 281 4.8 11.3 0.00 0.05 0.05 59 1012.9
20260502212014 21 347 6.4 12.9 0.00 0.05 0.05 59 1012.6
20260502212003 21 207 0.0 16.1 0.00 0.05 0.05 62 1012.9